| time (UTC) | temp C | wind direction | speed KPH | gust KPH | rain 1hr cm | rain 24hr cm | rain mn cm | humidity % | barometer mb |
| 20260503173634 | 16 | 220 | 9.7 | 25.7 | 0.00 | 0.00 | 0.00 | 39 | 1014.2 |
| 20260503173134 | 16 | 189 | 8.0 | 25.7 | 0.00 | 0.00 | 0.00 | 39 | 1014.3 |
| 20260503172633 | 16 | 193 | 6.4 | 22.5 | 0.00 | 0.00 | 0.00 | 39 | 1014.4 |
| 20260503172133 | 16 | 230 | 11.3 | 22.5 | 0.00 | 0.00 | 0.00 | 37 | 1014.3 |
| 20260503171633 | 16 | 217 | 9.7 | 25.7 | 0.00 | 0.00 | 0.00 | 38 | 1014.2 |
| 20260503171133 | 16 | 222 | 12.9 | 25.7 | 0.00 | 0.00 | 0.00 | 38 | 1014.4 |
| 20260503170633 | 16 | 220 | 8.0 | 25.7 | 0.00 | 0.00 | 0.00 | 38 | 1014.5 |
| 20260503170132 | 16 | 217 | 9.7 | 25.7 | 0.00 | 0.00 | 0.00 | 38 | 1014.4 |
| 20260503151014 | 14 | 221 | 9.7 | 22.5 | 0.00 | 0.00 | 0.00 | 43 | 1015.9 |
| 20260503150514 | 14 | 223 | 11.3 | 22.5 | 0.00 | 0.00 | 0.00 | 44 | 1015.9 |
| 20260503131351 | 8 | 230 | 8.0 | 17.7 | 0.00 | 0.00 | 0.00 | 65 | 1016.2 |
| 20260503130851 | 8 | 220 | 6.4 | 17.7 | 0.00 | 0.00 | 0.00 | 66 | 1016.1 |
| 20260503130350 | 8 | 196 | 4.8 | 17.7 | 0.00 | 0.00 | 0.00 | 66 | 1016.3 |
| 20260503110229 | 3 | 194 | 3.2 | 17.7 | 0.00 | 0.00 | 0.00 | 75 | 1016.0 |
| 20260503090136 | 4 | 199 | 1.6 | 17.7 | 0.00 | 0.00 | 0.00 | 73 | 1015.5 |
| 20260503081633 | 4 | 193 | 1.6 | 17.7 | 0.00 | 0.00 | 0.00 | 74 | 1015.8 |
| 20260503081132 | 4 | 192 | 1.6 | 17.7 | 0.00 | 0.00 | 0.00 | 74 | 1015.9 |
| 20260503080632 | 4 | 167 | 1.6 | 17.7 | 0.00 | 0.00 | 0.00 | 74 | 1016.0 |
| 20260503080132 | 4 | 166 | 1.6 | 17.7 | 0.00 | 0.00 | 0.00 | 74 | 1015.5 |
| 20260503072047 | 4 | 151 | 1.6 | 17.7 | 0.00 | 0.00 | 0.00 | 72 | 1015.7 |
| 20260503071547 | 4 | 151 | 1.6 | 17.7 | 0.00 | 0.00 | 0.00 | 72 | 1015.7 |
| 20260503071047 | 4 | 151 | 1.6 | 17.7 | 0.00 | 0.00 | 0.00 | 72 | 1015.6 |
| 20260503070547 | 4 | 150 | 1.6 | 17.7 | 0.00 | 0.00 | 0.00 | 72 | 1015.4 |
| 20260503054529 | 5 | 142 | 0.0 | 17.7 | 0.00 | 0.00 | 0.00 | 68 | 1016.1 |
| 20260503053514 | 5 | 140 | 1.6 | 17.7 | 0.00 | 0.00 | 0.00 | 69 | 1016.2 |
| 20260503053014 | 5 | 140 | 1.6 | 17.7 | 0.00 | 0.00 | 0.00 | 69 | 1016.3 |
| 20260503052514 | 5 | 139 | 1.6 | 17.7 | 0.00 | 0.00 | 0.00 | 69 | 1016.1 |
| 20260503052015 | 5 | 138 | 1.6 | 17.7 | 0.00 | 0.00 | 0.00 | 69 | 1016.1 |
| 20260503050957 | 5 | 69 | 0.0 | 17.7 | 0.00 | 0.00 | 0.00 | 69 | 1016.2 |
| 20260503050457 | 5 | 61 | 0.0 | 17.7 | 0.00 | 0.00 | 0.00 | 69 | 1016.0 |
| 20260503045442 | 5 | 53 | 0.0 | 17.7 | 0.00 | 0.00 | 0.00 | 70 | 1016.2 |
| 20260503044942 | 5 | 49 | 0.0 | 17.7 | 0.00 | 0.00 | 0.00 | 70 | 1016.1 |
| 20260503044442 | 5 | 46 | 0.0 | 17.7 | 0.00 | 0.00 | 0.00 | 71 | 1016.0 |
| 20260503043942 | 5 | 44 | 0.0 | 17.7 | 0.00 | 0.00 | 0.00 | 71 | 1016.2 |
| 20260503043442 | 5 | 43 | 0.0 | 17.7 | 0.00 | 0.00 | 0.00 | 71 | 1016.2 |
| 20260503042941 | 5 | 43 | 0.0 | 17.7 | 0.00 | 0.00 | 0.00 | 70 | 1016.0 |
| 20260503042441 | 5 | 43 | 0.0 | 17.7 | 0.00 | 0.00 | 0.00 | 70 | 1015.9 |
| 20260503041941 | 5 | 43 | 0.0 | 17.7 | 0.00 | 0.00 | 0.00 | 70 | 1016.0 |
| 20260503041441 | 5 | 43 | 0.0 | 17.7 | 0.00 | 0.00 | 0.00 | 70 | 1015.6 |
| 20260503040941 | 5 | 43 | 0.0 | 17.7 | 0.00 | 0.00 | 0.00 | 70 | 1015.9 |
| 20260503035926 | 5 | 43 | 0.0 | 17.7 | 0.00 | 0.00 | 0.00 | 69 | 1015.9 |
| 20260503035426 | 5 | 43 | 0.0 | 17.7 | 0.00 | 0.00 | 0.00 | 69 | 1016.0 |
| 20260503034926 | 5 | 43 | 0.0 | 17.7 | 0.00 | 0.00 | 0.00 | 68 | 1015.8 |
| 20260503034426 | 5 | 43 | 0.0 | 17.7 | 0.00 | 0.00 | 0.00 | 68 | 1016.0 |
| 20260503033926 | 5 | 43 | 0.0 | 17.7 | 0.00 | 0.00 | 0.00 | 68 | 1016.3 |
| 20260503033425 | 5 | 43 | 0.0 | 17.7 | 0.00 | 0.00 | 0.00 | 67 | 1016.1 |
| 20260503032410 | 6 | 43 | 0.0 | 17.7 | 0.00 | 0.00 | 0.00 | 67 | 1016.1 |
| 20260503031908 | 6 | 43 | 0.0 | 17.7 | 0.00 | 0.00 | 0.00 | 67 | 1016.2 |
| 20260503031409 | 6 | 43 | 0.0 | 17.7 | 0.00 | 0.00 | 0.00 | 66 | 1015.9 |
| 20260503030353 | 6 | 43 | 0.0 | 17.7 | 0.00 | 0.00 | 0.00 | 65 | 1016.0 |
| 20260503025852 | 6 | 43 | 0.0 | 17.7 | 0.00 | 0.00 | 0.00 | 64 | 1016.1 |
| 20260503025352 | 6 | 43 | 0.0 | 17.7 | 0.00 | 0.00 | 0.00 | 63 | 1016.0 |
| 20260503024336 | 6 | 43 | 0.0 | 17.7 | 0.00 | 0.00 | 0.00 | 63 | 1016.1 |
| 20260503023836 | 6 | 43 | 0.0 | 17.7 | 0.00 | 0.00 | 0.00 | 63 | 1016.0 |
| 20260503022820 | 7 | 43 | 0.0 | 17.7 | 0.00 | 0.00 | 0.00 | 61 | 1016.1 |
| 20260503022320 | 7 | 43 | 0.0 | 17.7 | 0.00 | 0.00 | 0.00 | 61 | 1016.1 |
| 20260503021819 | 7 | 43 | 0.0 | 17.7 | 0.00 | 0.00 | 0.00 | 60 | 1016.0 |
| 20260503020804 | 7 | 43 | 1.6 | 17.7 | 0.00 | 0.00 | 0.00 | 60 | 1015.7 |
| 20260503020302 | 7 | 304 | 0.0 | 17.7 | 0.00 | 0.00 | 0.00 | 58 | 1016.0 |
| 20260503015801 | 8 | 304 | 0.0 | 17.7 | 0.00 | 0.00 | 0.00 | 56 | 1015.9 |
| 20260503015301 | 8 | 303 | 0.0 | 17.7 | 0.00 | 0.00 | 0.00 | 53 | 1015.6 |
| 20260503014801 | 8 | 303 | 0.0 | 17.7 | 0.00 | 0.00 | 0.00 | 52 | 1015.9 |
| 20260503014300 | 8 | 303 | 0.0 | 17.7 | 0.00 | 0.00 | 0.00 | 51 | 1015.8 |
| 20260503012728 | 8 | 304 | 0.0 | 17.7 | 0.00 | 0.00 | 0.00 | 50 | 1015.6 |
| 20260503012228 | 8 | 304 | 1.6 | 17.7 | 0.00 | 0.00 | 0.00 | 50 | 1015.5 |
| 20260503011728 | 8 | 304 | 1.6 | 17.7 | 0.00 | 0.00 | 0.00 | 49 | 1015.5 |
| 20260503011229 | 9 | 304 | 1.6 | 17.7 | 0.00 | 0.00 | 0.00 | 48 | 1015.9 |
| 20260503010728 | 9 | 304 | 0.0 | 17.7 | 0.00 | 0.00 | 0.00 | 48 | 1015.3 |
| 20260503010228 | 9 | 304 | 1.6 | 17.7 | 0.00 | 0.00 | 0.00 | 47 | 1015.4 |
| 20260503005728 | 9 | 303 | 0.0 | 17.7 | 0.00 | 0.00 | 0.00 | 46 | 1015.6 |
| 20260503005228 | 9 | 304 | 1.6 | 17.7 | 0.00 | 0.00 | 0.00 | 46 | 1015.5 |
| 20260503004727 | 9 | 304 | 1.6 | 17.7 | 0.00 | 0.00 | 0.00 | 45 | 1015.5 |
| 20260503004227 | 10 | 311 | 3.2 | 17.7 | 0.00 | 0.00 | 0.00 | 45 | 1015.5 |
| 20260503003727 | 10 | 307 | 3.2 | 17.7 | 0.00 | 0.00 | 0.00 | 44 | 1015.4 |
| 20260503003227 | 10 | 311 | 3.2 | 17.7 | 0.00 | 0.00 | 0.00 | 43 | 1015.3 |
| 20260503002212 | 10 | 293 | 4.8 | 17.7 | 0.00 | 0.00 | 0.00 | 42 | 1015.1 |
| 20260503001713 | 10 | 299 | 4.8 | 17.7 | 0.00 | 0.00 | 0.00 | 42 | 1015.3 |
| 20260503001212 | 10 | 316 | 8.0 | 17.7 | 0.00 | 0.00 | 0.00 | 41 | 1015.0 |
| 20260503000712 | 10 | 303 | 6.4 | 17.7 | 0.00 | 0.00 | 0.00 | 41 | 1014.8 |
| 20260503000212 | 11 | 295 | 6.4 | 17.7 | 0.00 | 0.00 | 0.00 | 41 | 1015.1 |
| 20260502235713 | 11 | 300 | 4.8 | 17.7 | 0.00 | 0.00 | 0.00 | 41 | 1015.0 |
| 20260502235212 | 11 | 301 | 4.8 | 17.7 | 0.00 | 0.00 | 0.00 | 40 | 1013.6 |
| 20260502234712 | 11 | 0 | 3.2 | 17.7 | 0.00 | 0.00 | 0.00 | 39 | 1003.5 |
| 20260502234213 | 11 | 30 | 3.2 | 17.7 | 0.00 | 0.00 | 0.00 | 38 | 1000.9 |
| 20260502233712 | 11 | 101 | 0.0 | 17.7 | 0.00 | 0.00 | 0.00 | 40 | 998.6 |
| 20260502232657 | 11 | 31 | 3.2 | 17.7 | 0.00 | 0.00 | 0.00 | 39 | 996.8 |
| 20260502232158 | 11 | 70 | 1.6 | 17.7 | 0.00 | 0.00 | 0.00 | 39 | 996.2 |
| 20260502231657 | 11 | 43 | 1.6 | 17.7 | 0.00 | 0.00 | 0.00 | 40 | 1003.2 |
| 20260502231157 | 11 | 333 | 4.8 | 17.7 | 0.00 | 0.00 | 0.00 | 39 | 1000.0 |
| 20260502230657 | 11 | 25 | 3.2 | 17.7 | 0.00 | 0.00 | 0.00 | 40 | 998.6 |
| 20260502230157 | 11 | 8 | 3.2 | 17.7 | 0.00 | 0.00 | 0.00 | 39 | 1002.1 |
| 20260502225657 | 11 | 1 | 4.8 | 17.7 | 0.00 | 0.00 | 0.00 | 40 | 1014.2 |
| 20260502225157 | 11 | 352 | 3.2 | 17.7 | 0.00 | 0.00 | 0.00 | 40 | 1007.7 |
| 20260502224141 | 11 | 1 | 3.2 | 17.7 | 0.00 | 0.00 | 0.00 | 41 | 1011.4 |
| 20260502223641 | 11 | 351 | 3.2 | 17.7 | 0.00 | 0.00 | 0.00 | 41 | 1012.5 |
| 20260502223140 | 11 | 349 | 1.6 | 17.7 | 0.00 | 0.00 | 0.00 | 41 | 1014.8 |
| 20260502222640 | 11 | 319 | 8.0 | 17.7 | 0.00 | 0.00 | 0.00 | 40 | 1014.4 |
| 20260502222141 | 11 | 299 | 9.7 | 17.7 | 0.00 | 0.00 | 0.00 | 39 | 1013.5 |
| 20260502221640 | 11 | 42 | 3.2 | 17.7 | 0.00 | 0.00 | 0.00 | 40 | 1014.7 |
| 20260502221140 | 11 | 337 | 3.2 | 17.7 | 0.00 | 0.00 | 0.00 | 40 | 1014.6 |
| 20260502220124 | 12 | 14 | 6.4 | 19.3 | 0.00 | 0.00 | 0.00 | 40 | 1015.9 |
| 20260502215623 | 12 | 288 | 4.8 | 19.3 | 0.00 | 0.00 | 0.00 | 40 | 1015.9 |
| 20260502215124 | 11 | 1 | 6.4 | 19.3 | 0.00 | 0.00 | 0.00 | 40 | 1015.1 |
| 20260502214108 | 11 | 329 | 3.2 | 19.3 | 0.00 | 0.00 | 0.00 | 41 | 1014.8 |
| 20260502213608 | 12 | 181 | 3.2 | 19.3 | 0.00 | 0.00 | 0.00 | 40 | 1014.7 |
| 20260502213107 | 12 | 23 | 6.4 | 19.3 | 0.00 | 0.00 | 0.00 | 40 | 1014.7 |
| 20260502212607 | 12 | 324 | 6.4 | 17.7 | 0.00 | 0.00 | 0.00 | 40 | 1012.4 |
| 20260502212106 | 12 | 59 | 6.4 | 17.7 | 0.00 | 0.00 | 0.00 | 40 | 1013.1 |
| 20260502211607 | 12 | 91 | 3.2 | 19.3 | 0.00 | 0.00 | 0.00 | 39 | 1013.9 |
| 20260502211106 | 12 | 1 | 1.6 | 19.3 | 0.00 | 0.00 | 0.00 | 39 | 1014.7 |
| 20260502210606 | 12 | 334 | 6.4 | 19.3 | 0.00 | 0.00 | 0.00 | 40 | 1014.1 |
| 20260502210106 | 12 | 354 | 6.4 | 19.3 | 0.00 | 0.00 | 0.00 | 40 | 1014.3 |
| 20260502205606 | 11 | 35 | 4.8 | 19.3 | 0.00 | 0.00 | 0.00 | 41 | 1014.3 |
| 20260502205106 | 12 | 356 | 3.2 | 19.3 | 0.00 | 0.00 | 0.00 | 42 | 1014.3 |
| 20260502204605 | 12 | 18 | 1.6 | 19.3 | 0.00 | 0.00 | 0.00 | 40 | 1014.5 |
| 20260502204105 | 12 | 353 | 6.4 | 19.3 | 0.00 | 0.00 | 0.00 | 40 | 1014.6 |
| 20260502203605 | 12 | 13 | 4.8 | 17.7 | 0.00 | 0.00 | 0.00 | 39 | 1014.6 |
| 20260502203105 | 12 | 26 | 6.4 | 22.5 | 0.00 | 0.00 | 0.00 | 40 | 1014.5 |
| 20260502202605 | 12 | 318 | 9.7 | 22.5 | 0.00 | 0.00 | 0.00 | 39 | 1014.8 |
| 20260502201550 | 12 | 28 | 4.8 | 19.3 | 0.00 | 0.00 | 0.00 | 39 | 1014.6 |
| 20260502201050 | 12 | 80 | 3.2 | 19.3 | 0.00 | 0.00 | 0.00 | 40 | 1014.9 |
| 20260502200550 | 12 | 23 | 6.4 | 19.3 | 0.00 | 0.00 | 0.00 | 40 | 1014.6 |
| 20260502200050 | 12 | 343 | 4.8 | 17.7 | 0.00 | 0.00 | 0.00 | 41 | 1015.0 |
| 20260502195550 | 12 | 281 | 6.4 | 20.9 | 0.00 | 0.00 | 0.00 | 42 | 1014.7 |
| 20260502195050 | 11 | 27 | 4.8 | 20.9 | 0.00 | 0.00 | 0.00 | 42 | 1014.8 |
| 20260502194034 | 12 | 52 | 4.8 | 19.3 | 0.00 | 0.00 | 0.00 | 41 | 1014.8 |
| 20260502193534 | 12 | 358 | 8.0 | 19.3 | 0.00 | 0.00 | 0.00 | 40 | 1015.2 |
| 20260502193034 | 12 | 273 | 6.4 | 24.1 | 0.00 | 0.00 | 0.00 | 41 | 1015.0 |
| 20260502192019 | 11 | 311 | 6.4 | 17.7 | 0.00 | 0.00 | 0.00 | 42 | 1015.0 |
| 20260502191519 | 11 | 234 | 1.6 | 19.3 | 0.00 | 0.00 | 0.00 | 43 | 1015.1 |
| 20260502191019 | 11 | 284 | 4.8 | 19.3 | 0.00 | 0.00 | 0.00 | 42 | 1015.2 |
| 20260502190003 | 12 | 27 | 4.8 | 22.5 | 0.00 | 0.00 | 0.00 | 40 | 1015.5 |
| 20260502185503 | 12 | 314 | 3.2 | 22.5 | 0.00 | 0.00 | 0.00 | 42 | 1015.7 |
| 20260502185003 | 11 | 41 | 4.8 | 22.5 | 0.00 | 0.00 | 0.00 | 42 | 1015.4 |
| 20260502184503 | 11 | 321 | 11.3 | 22.5 | 0.00 | 0.00 | 0.00 | 41 | 1015.4 |
| 20260502184003 | 12 | 186 | 1.6 | 19.3 | 0.00 | 0.00 | 0.00 | 43 | 1015.4 |
| 20260502183503 | 12 | 16 | 4.8 | 19.3 | 0.00 | 0.00 | 0.00 | 43 | 1015.5 |
| 20260502182503 | 11 | 307 | 8.0 | 22.5 | 0.00 | 0.00 | 0.00 | 42 | 1015.6 |
| 20260502182002 | 11 | 302 | 8.0 | 22.5 | 0.00 | 0.00 | 0.00 | 43 | 1015.6 |
| 20260502181501 | 12 | 295 | 9.7 | 22.5 | 0.00 | 0.00 | 0.00 | 41 | 1015.8 |
| 20260502181000 | 12 | 326 | 4.8 | 19.3 | 0.00 | 0.00 | 0.00 | 44 | 1015.9 |
| 20260502180500 | 12 | 15 | 4.8 | 19.3 | 0.00 | 0.00 | 0.00 | 42 | 1015.4 |